Terminal Aerodrome Forecast
Issued by NWS

Home | Current Version | Previous Version | Text Only | Print | Product List | Glossary Off
Versions: 1 2 3 4 5 6 7 8 9 10 11 12 13 14

000
FTUS45 KGGW 111100
TAFSDY
TAF
KSDY 111120Z 1112/1212 VRB06KT P6SM -SHRA BKN060
      TEMPO 1112/1115 5SM -TSRA BKN060CB
     FM111800 35008KT P6SM SCT180
     FM120300 VRB05KT P6SM SCT200
      AMD LTD TO CLD VIS AND WIND=

USA.gov is the U.S. government's official web portal to all federal, state and local government web resources and services.